[[{"header":{"parameterUnit":"m.s-1","parameterCategory":1,"la1":30.2991,"la2":30.254,"lo1":-89.0895,"lo2":-89.0444,"dy":0.0017,"dx":0.0017,"nx":28,"ny":28,"refTime":"2026-02-05T09:00:00:Z","depth":0,"parameterNumber":2,"parameterNumberName":"U-component_of_WINDS"},"data":[0,0,0,0,0,0,0,0,0,0,0,0,0,0,0,0,0,0,0,0,0,0,0,0,0,0,0,0,0,0,0,0,0,0,0,0,0,0,0,0,0,0,0,0,0,0,0,0,0,0,0,0,0,0,0,0,0,0,3.2922,3.2923,0,3.3051,3.3052,3.3054,3.2996,3.2993,3.299,3.2987,3.3123,3.3129,3.3135,0,0,0,0,0,0,0,0,0,0,0,0,0,3.2631,3.2636,3.2922,3.2923,3.2925,3.305,3.3052,3.3054,3.2997,3.2993,3.2989,3.2985,3.312,3.3128,3.3136,0,0,0,0,0,0,0,0,0,0,0,0,0,3.2758,3.2638,3.2921,3.2911,3.2912,3.305,3.3052,3.3054,3.2997,3.2993,3.2988,3.2983,3.3118,3.3127,3.3137,3.3294,0,0,3.3167,3.3172,0,0,0,0,0,0,0,0,3.2751,3.2769,3.2911,3.2912,3.2913,3.3002,3.2999,3.3135,3.2999,3.2965,3.2986,3.2981,3.3087,3.3099,3.3134,3.33,3.3306,3.3168,3.3174,3.3178,3.3181,0,0,0,0,0,0,0,3.2742,3.2763,3.2973,3.2913,3.2914,3.2902,3.2915,3.3025,3.3051,3.2968,3.2964,3.2979,3.3086,3.3124,3.3136,3.3308,3.3168,3.3177,3.3183,3.3187,3.3613,3.3618,0,0,0,0,0,0,3.2733,3.2756,3.2969,3.2977,3.2818,3.2911,3.2925,3.2978,3.305,3.3056,3.2983,3.2976,3.311,3.3125,3.3141,3.3331,3.3178,3.3188,3.3193,3.3607,3.3614,3.362,0,0,0,0,0,0,3.2727,3.2752,3.2963,3.2865,3.2891,3.2921,3.2981,3.2984,3.3021,3.3062,3.3067,3.3017,3.3106,3.3127,3.3257,3.3334,3.3192,3.3201,3.3601,3.3609,3.3617,3.3711,0,0,0,0,0,0,3.2719,3.2751,3.2809,3.2867,3.2897,3.3076,3.2986,3.299,3.3038,3.303,3.3095,3.3101,3.3104,3.3242,3.3266,3.3346,3.3209,3.3594,3.3605,3.3614,3.3701,3.3721,3.3738,0,0,0,0,0,3.2709,3.2831,3.2813,3.2839,3.2971,3.308,3.3098,3.3098,3.3045,3.3105,3.3131,3.3099,3.3322,3.3256,3.3283,3.3366,3.3589,3.3602,3.3613,3.3692,3.3717,3.3738,0,0,0,0,0,0,3.2783,3.2838,3.2819,3.2963,3.3017,3.307,3.3146,3.3124,3.3195,3.3185,3.3183,3.3199,3.3333,3.3362,3.3288,3.3523,3.3448,3.3466,3.3499,3.3522,3.3541,3.3531,3.3217,0,0,0,0,0,3.2816,3.2899,3.2944,3.3067,3.3095,3.3116,3.3164,3.316,3.3216,3.3239,3.3275,3.3333,3.3416,3.347,3.3549,3.3705,3.3719,3.3775,3.3794,3.3809,3.3825,3.3911,3.3937,3.3659,3.3659,3.3659,0,0,3.2885,3.2926,3.2979,3.3083,3.3124,3.3212,3.3136,3.3232,3.3297,3.3254,3.3379,3.3407,3.3471,3.3615,3.368,3.3644,3.3905,3.3825,3.3836,3.3844,3.3926,3.3953,3.3976,3.3668,3.3666,3.3665,0,0,3.3057,3.3095,3.3203,3.3246,3.331,3.3323,3.3349,3.3406,3.3423,3.3548,3.3518,3.3596,3.3739,3.3787,3.3829,3.4021,3.3994,3.4046,3.4144,3.4229,3.425,3.427,3.4339,3.4364,3.4062,3.4062,3.4062,0,3.3135,3.3265,3.3261,3.336,3.3408,3.3372,3.3482,3.3524,3.3611,3.3646,3.3603,3.3783,3.3823,3.3978,3.4025,3.406,3.4091,3.4039,3.4247,3.4267,3.4285,3.4351,3.4377,3.4068,3.4067,3.4067,3.4066,0,3.3359,3.345,3.3529,3.3613,3.367,3.3774,3.3787,3.3845,3.3837,3.3855,3.3984,3.4031,3.412,3.4156,3.4148,3.4311,3.4286,3.4246,3.4171,3.4317,3.438,3.4405,3.4077,3.4075,3.4073,3.4071,0,0,3.3581,3.3662,3.3691,3.3729,3.3797,3.3868,3.3971,3.4056,3.4107,3.4168,3.4256,3.4378,3.4342,3.439,3.4388,3.4462,3.4612,3.4412,3.4414,3.4449,3.4796,3.4826,3.4856,3.4595,3.46,3.4603,3.4791,0,3.3758,3.3937,3.3938,3.4104,3.4188,3.4156,3.4246,3.4299,3.4319,3.4396,3.4418,3.4506,3.445,3.4479,3.4551,3.4579,3.4682,3.4565,3.4678,3.4682,3.4663,3.4888,3.492,3.5095,3.4815,3.4819,3.4822,0,3.3989,3.4057,3.4231,3.4288,3.4323,3.4404,3.4483,3.4556,3.4616,3.4625,3.468,3.4667,3.4774,3.4696,3.4844,3.4765,3.4811,3.4832,3.4839,3.485,3.4761,3.4906,3.515,3.5177,3.486,3.4857,3.4854,0,3.4135,3.427,3.4392,3.4425,3.4494,3.4552,3.4584,3.4639,3.469,3.476,3.4794,3.4876,3.4921,3.4985,3.4996,3.4937,3.5146,3.5067,3.5158,3.5158,3.5204,3.5201,3.546,3.5233,3.5232,3.5232,3.5231,0,3.4333,3.4441,3.4458,3.4533,3.4654,3.4655,3.4775,3.4802,3.4851,3.4933,3.491,3.4987,3.4995,3.5076,3.5084,3.5207,3.5228,3.524,3.5241,3.5242,3.5241,3.5273,3.5262,3.5239,3.5237,3.5236,3.5235,0,3.4516,3.4532,3.4663,3.4717,3.4734,3.4821,3.4868,3.4941,3.4959,3.5063,3.5087,3.5116,3.521,3.5226,3.5336,3.5342,3.5489,3.5478,3.5469,3.5468,3.5558,3.555,3.5848,3.5887,3.5633,3.5636,3.5638,0,3.4642,3.4724,3.4788,3.484,3.4875,3.4959,3.5011,3.5016,3.5072,3.5147,3.5211,3.5302,3.5375,3.5526,3.5558,3.5643,3.5634,3.5732,3.5646,3.5646,3.5637,3.5632,3.5641,3.5749,3.5752,3.5754,3.5756,0,3.4865,3.4868,3.4944,3.5024,3.5087,3.515,3.5209,3.5254,3.5266,3.5331,3.5425,3.5482,3.5594,3.5685,3.577,3.5804,3.5784,3.5782,3.5808,3.5811,3.5803,3.581,3.5515,3.5776,3.5774,3.5772,3.5771,3.577,3.5024,3.5096,3.5152,3.5238,3.5283,3.534,3.5411,3.5438,3.5516,3.5607,3.5605,3.571,3.5769,3.588,3.592,3.6003,3.5972,3.6009,3.6018,3.6028,3.6037,3.5789,3.6018,3.6018,3.6017,3.6017,3.6017,0,3.5246,3.528,3.5359,3.5443,3.5511,3.5484,3.5549,3.5608,3.57,3.5756,3.5828,3.5938,3.6026,3.6066,3.6153,3.6212,3.6205,3.6235,3.6232,3.624,3.6059,3.6029,3.624,3.624,3.624,3.624,3.624,3.624,3.537,3.5491,3.5501,3.5645,3.568,3.578,3.582,3.5873,3.5918,3.6041,3.6114,3.6138,3.6189,3.628,3.6361,3.6371,3.6405,3.644,3.6445,3.6275,3.6253,3.6231,3.6202,3.6447,3.6447,3.6619,3.6621,3.6622]},{"header":{"parameterUnit":"m.s-1","parameterCategory":1,"la1":30.2991,"la2":30.254,"lo1":-89.0895,"lo2":-89.0444,"dy":0.0017,"dx":0.0017,"nx":28,"ny":28,"refTime":"2026-02-05T09:00:00:Z","depth":0,"parameterNumber":3,"parameterNumberName":"V-component_of_WINDS"},"data":[0,0,0,0,0,0,0,0,0,0,0,0,0,0,0,0,0,0,0,0,0,0,0,0,0,0,0,0,0,0,0,0,0,0,0,0,0,0,0,0,0,0,0,0,0,0,0,0,0,0,0,0,0,0,0,0,0,0,-1.3717,-1.3718,0,-1.3886,-1.3888,-1.389,-1.3913,-1.3911,-1.391,-1.3908,-1.4085,-1.4091,-1.4097,0,0,0,0,0,0,0,0,0,0,0,0,0,-1.3416,-1.3421,-1.3716,-1.3718,-1.3721,-1.3886,-1.3888,-1.389,-1.3913,-1.3911,-1.3909,-1.3907,-1.4083,-1.409,-1.4098,0,0,0,0,0,0,0,0,0,0,0,0,0,-1.3562,-1.3423,-1.3716,-1.3752,-1.3757,-1.3885,-1.3888,-1.3891,-1.3914,-1.3911,-1.3909,-1.3906,-1.408,-1.4089,-1.4099,-1.4204,0,0,-1.4127,-1.4131,0,0,0,0,0,0,0,0,-1.3554,-1.3573,-1.3744,-1.375,-1.3755,-1.3876,-1.3847,-1.3996,-1.3914,-1.3854,-1.3908,-1.3905,-1.4017,-1.4032,-1.4069,-1.4213,-1.422,-1.4128,-1.4134,-1.4138,-1.414,0,0,0,0,0,0,0,-1.3544,-1.3566,-1.3784,-1.3747,-1.3754,-1.3761,-1.3779,-1.3875,-1.3947,-1.3859,-1.3861,-1.3881,-1.402,-1.406,-1.4073,-1.4223,-1.4128,-1.4136,-1.4142,-1.4145,-1.4464,-1.4466,0,0,0,0,0,0,-1.3526,-1.3557,-1.3778,-1.3789,-1.3646,-1.3768,-1.3788,-1.384,-1.3946,-1.396,-1.3883,-1.3881,-1.4045,-1.4062,-1.408,-1.4212,-1.4137,-1.4146,-1.4152,-1.4461,-1.4464,-1.4467,0,0,0,0,0,0,-1.352,-1.3546,-1.3771,-1.3674,-1.3703,-1.3776,-1.3833,-1.3844,-1.3884,-1.3964,-1.3977,-1.391,-1.4044,-1.4067,-1.4173,-1.4218,-1.415,-1.4159,-1.4457,-1.4462,-1.4466,-1.4475,0,0,0,0,0,0,-1.3511,-1.3543,-1.3583,-1.3674,-1.3708,-1.3861,-1.3836,-1.3849,-1.39,-1.39,-1.3993,-1.4007,-1.4044,-1.4159,-1.4183,-1.423,-1.4166,-1.4454,-1.4459,-1.4464,-1.4472,-1.448,-1.4487,0,0,0,0,0,-1.35,-1.358,-1.3585,-1.3612,-1.3759,-1.3864,-1.3883,-1.3923,-1.3903,-1.3945,-1.3996,-1.4004,-1.4209,-1.417,-1.4196,-1.4247,-1.4451,-1.4458,-1.4464,-1.4468,-1.4478,-1.4486,0,0,0,0,0,0,-1.3493,-1.3592,-1.3599,-1.371,-1.3778,-1.3867,-1.3921,-1.3932,-1.4008,-1.4005,-1.4053,-1.4074,-1.4179,-1.4224,-1.4178,-1.4356,-1.4329,-1.4341,-1.4323,-1.4333,-1.434,-1.4327,-1.4174,0,0,0,0,0,-1.3504,-1.3579,-1.3662,-1.3752,-1.3786,-1.3847,-1.3894,-1.392,-1.3992,-1.4021,-1.4081,-1.4152,-1.4233,-1.4285,-1.4364,-1.4478,-1.45,-1.4526,-1.4533,-1.4539,-1.4549,-1.4615,-1.4628,-1.4489,-1.4489,-1.4488,0,0,-1.3528,-1.3591,-1.3636,-1.3752,-1.3808,-1.3886,-1.3871,-1.3954,-1.4014,-1.4035,-1.4139,-1.4185,-1.4268,-1.4379,-1.4431,-1.442,-1.4592,-1.4547,-1.4551,-1.4559,-1.4623,-1.4636,-1.4647,-1.4493,-1.4492,-1.4491,0,0,-1.3611,-1.3667,-1.3748,-1.3804,-1.3888,-1.3929,-1.3948,-1.4036,-1.4067,-1.4173,-1.4191,-1.4262,-1.44,-1.4459,-1.4506,-1.4614,-1.4624,-1.4638,-1.4677,-1.4741,-1.4752,-1.4761,-1.4801,-1.4815,-1.4648,-1.4648,-1.4648,0,-1.3631,-1.3748,-1.3789,-1.3872,-1.3923,-1.3945,-1.4029,-1.4081,-1.4187,-1.4223,-1.4208,-1.4383,-1.444,-1.4566,-1.4592,-1.463,-1.4655,-1.4628,-1.4746,-1.4757,-1.4767,-1.4805,-1.482,-1.4649,-1.4649,-1.4649,-1.4649,0,-1.3769,-1.385,-1.3906,-1.4007,-1.4065,-1.4148,-1.4202,-1.4256,-1.4276,-1.4319,-1.4427,-1.4496,-1.459,-1.4622,-1.4643,-1.4752,-1.4742,-1.4736,-1.471,-1.4781,-1.4818,-1.4832,-1.4651,-1.465,-1.465,-1.465,0,0,-1.3853,-1.3975,-1.3995,-1.4042,-1.4137,-1.4201,-1.4286,-1.4377,-1.4422,-1.4495,-1.4568,-1.4685,-1.4681,-1.4735,-1.4763,-1.4818,-1.4901,-1.4806,-1.4809,-1.4822,-1.5026,-1.5031,-1.5047,-1.4907,-1.491,-1.4913,-1.502,0,-1.3948,-1.4098,-1.4137,-1.4266,-1.4342,-1.4365,-1.4439,-1.4506,-1.4548,-1.462,-1.4667,-1.475,-1.4737,-1.477,-1.4826,-1.4878,-1.4942,-1.4871,-1.4978,-1.4981,-1.4957,-1.5066,-1.5071,-1.5168,-1.5034,-1.5037,-1.5039,0,-1.408,-1.4154,-1.429,-1.4376,-1.441,-1.4475,-1.4562,-1.4631,-1.4708,-1.4735,-1.4796,-1.4819,-1.491,-1.4878,-1.5005,-1.4956,-1.5002,-1.5034,-1.5039,-1.5051,-1.5015,-1.5082,-1.5201,-1.5216,-1.5062,-1.506,-1.5058,0,-1.4129,-1.4263,-1.4362,-1.4401,-1.4504,-1.4549,-1.4595,-1.4669,-1.4722,-1.4799,-1.4834,-1.492,-1.4968,-1.5035,-1.5081,-1.5054,-1.5205,-1.5177,-1.5231,-1.523,-1.5263,-1.526,-1.5391,-1.529,-1.529,-1.529,-1.5289,0,-1.4232,-1.4314,-1.4385,-1.4446,-1.454,-1.4585,-1.4677,-1.4723,-1.4789,-1.4861,-1.4886,-1.4952,-1.5009,-1.5084,-1.5121,-1.5222,-1.5243,-1.5268,-1.5277,-1.5267,-1.5264,-1.5298,-1.5293,-1.5294,-1.5293,-1.5292,-1.5291,0,-1.4302,-1.4353,-1.4463,-1.4551,-1.4575,-1.464,-1.4716,-1.4777,-1.482,-1.4911,-1.4934,-1.5003,-1.5092,-1.5145,-1.5259,-1.5284,-1.5395,-1.5401,-1.5369,-1.5373,-1.5425,-1.542,-1.5584,-1.5608,-1.549,-1.5491,-1.5492,0,-1.4365,-1.4429,-1.4524,-1.4573,-1.4619,-1.4697,-1.4751,-1.4798,-1.4854,-1.4947,-1.4997,-1.5088,-1.5164,-1.5306,-1.5367,-1.5454,-1.5463,-1.5514,-1.5477,-1.5464,-1.5466,-1.5462,-1.5469,-1.5521,-1.5522,-1.5523,-1.5524,0,-1.4472,-1.4494,-1.457,-1.4655,-1.4719,-1.4788,-1.4858,-1.4897,-1.4956,-1.5017,-1.5109,-1.5167,-1.5283,-1.5374,-1.5466,-1.5515,-1.553,-1.5535,-1.5553,-1.5543,-1.5522,-1.5536,-1.5388,-1.5531,-1.5531,-1.553,-1.553,-1.5529,-1.4542,-1.46,-1.4676,-1.4761,-1.4818,-1.4882,-1.4944,-1.4995,-1.5071,-1.5169,-1.5192,-1.5289,-1.5366,-1.5492,-1.5543,-1.562,-1.5612,-1.5637,-1.5643,-1.5649,-1.5651,-1.5509,-1.5637,-1.5637,-1.5637,-1.5637,-1.5637,0,-1.4652,-1.4701,-1.4778,-1.4874,-1.4941,-1.4948,-1.5025,-1.5081,-1.5166,-1.5236,-1.5309,-1.5416,-1.5504,-1.5572,-1.5663,-1.5712,-1.5722,-1.5734,-1.5732,-1.5743,-1.5653,-1.5629,-1.5725,-1.5725,-1.5725,-1.5725,-1.5725,-1.5725,-1.4716,-1.4816,-1.4847,-1.4976,-1.5026,-1.512,-1.5163,-1.5224,-1.528,-1.5397,-1.547,-1.5513,-1.5584,-1.568,-1.5762,-1.578,-1.5813,-1.5825,-1.5844,-1.5759,-1.5749,-1.574,-1.5718,-1.5832,-1.5832,-1.5929,-1.593,-1.593]}]]